Regional Weather Roundup
Issued by NWS

Home | Current Version | Previous Version | Graphics & Text | Print | Product List | Glossary On
Versions: 1 2 3 4 5 6 7 8 9 10 11 12 13 14 15 16 17 18 19 20 21 22 23 24 25 26 27 28 29 30 31 32 33 34 35 36 37 38 39 40 41 42 43 44 45 46 47 48 49 50
157
ASUS43 KOAX 210110
RWRNE

WEATHER ROUNDUP FOR NEBRASKA
NATIONAL WEATHER SERVICE OMAHA NE
800 PM CDT THU JUL 20 2017

NOTES: SATELLITE DATA IS BEING USED TO AUGMENT CLOUD COVER ABOVE
       12000 FEET.
       "FAIR" INDICATES FEW OR NO CLOUDS BELOW 12,000 FEET WITH NO
       SIGNIFICANT WEATHER AND/OR OBSTRUCTIONS TO VISIBILITY.


NEZ001>004-019>022-054>056-210200-
NEBRASKA PANHANDLE

CITY           SKY/WX    TMP DP  RH WIND       PRES   REMARKS
SCOTTSBLUFF    CLOUDY    84  62  47 E8        29.97F
ALLIANCE       SUNNY     85  59  41 SE10      29.99R
CHADRON        SUNNY     90  59  35 S12       29.91F
GORDON         FAIR      86  61  42 S10G17    29.96S
KIMBALL        CLOUDY    85  57  38 SE12      30.06F
SIDNEY         CLOUDY    89  57  33 E10       30.03F
$$

NEZ057>060-069>072-079>082-210200-
SOUTHWEST NEBRASKA

CITY           SKY/WX    TMP DP  RH WIND       PRES   REMARKS
NORTH PLATTE   SUNNY     88  70  55 SE10      29.90F HX  93
IMPERIAL       SUNNY     96  60  30 W6        29.90S HX  96
LEXINGTON      SUNNY     86  76  71 E9        29.90F HX  96
MCCOOK         SUNNY     98  58  26 S9        29.86F HX  97
OGALLALA       SUNNY     93  62  35 E10       29.93S HX  93
$$

NEZ005>010-023>029-035>040-094-210200-
NORTH CENTRAL NEBRASKA

CITY           SKY/WX    TMP DP  RH WIND       PRES   REMARKS
VALENTINE      SUNNY     92  57  30 S18       29.90F HX  90
AINSWORTH      SUNNY     87  66  50 SE13      29.92F
BROKEN BOW     SUNNY     87  72  60 E12       29.92F HX  93
O`NEILL        SUNNY     85  76  74 SE12      29.92F HX  94
ORD            SUNNY     89  68  49 SE10      29.89F HX  93
THEDFORD       SUNNY     89  69  51 SE10      29.94F HX  94
$$

NEZ041-046>049-061>064-073>077-083>087-210200-
SOUTH CENTRAL NEBRASKA

CITY           SKY/WX    TMP DP  RH WIND       PRES   REMARKS
GRAND ISLAND   CLEAR     88  79  74 E8        29.90F HX 103
AURORA         CLEAR     87  80  80 E7        29.90F HX 102
HASTINGS       CLEAR     90  74  59 E8        29.90F HX  99
HEBRON         CLEAR     91  75  59 SE6       29.88S HX 101
HOLDREGE       SUNNY     86  77  73 E9        29.90S HX  97
KEARNEY        SUNNY     87  77  72 E10       29.90F HX  99
YORK           CLEAR     88  81  79 E9        29.90F HX 105
$$

NEZ011>018-030>034-042>045-210200-
NORTHEAST NEBRASKA

CITY           SKY/WX    TMP DP  RH WIND       PRES   REMARKS
NORFOLK        CLEAR     84  69  60 SE9       29.90F
ALBION         CLEAR     87  74  65 E8        29.91F HX  96
BLAIR          CLEAR     89  79  70 E8        29.91S HX 104
COLUMBUS       CLEAR     90  75  61 E12       29.89F HX 100
FREMONT        CLOUDY    87  75  67 E8        29.90F HX  96
TEKAMAH        PTCLDY    85  74  69 E7        29.91R HX  92
WAYNE          CLOUDY    82  73  73 E3        29.91F
$$

NEZ050>053-065>068-078-088>093-210200-
SOUTHEAST NEBRASKA

CITY           SKY/WX    TMP DP  RH WIND       PRES   REMARKS
LINCOLN        CLOUDY    92  75  57 SE7       29.89F HX 103
OMAHA EPPLEY   MOCLDY    91  77  63 E8        29.90S HX 104
BEATRICE       CLEAR     91  76  61 SE8       29.89F HX 101
FALLS CITY     CLOUDY    88  78  72 SE7       29.90F HX 101
NEBRASKA CITY  MOCLDY    90  83  80 S7        29.90S HX 112
PLATTSMOUTH    CLEAR     90  80  73 CALM      29.91S HX 106
$$

NEZ044-045-051>053-067-210200-
OMAHA AREA

CITY           SKY/WX    TMP DP  RH WIND       PRES   REMARKS
OMAHA EPPLEY   MOCLDY    91  77  63 E8        29.90S HX 104
BLAIR          CLEAR     89  79  70 E8        29.91S HX 104
FREMONT        CLOUDY    87  75  67 E8        29.90F HX  96
MILLARD        CLEAR     92  79  65 E3        29.90S HX 110
OFFUTT AFB     PTCLDY    90  78  69 E6        29.90F HX 104
PLATTSMOUTH    CLEAR     90  80  73 CALM      29.91S HX 106
WAHOO          FAIR      89  78  70 E5        29.89F HX 102
$$




USA.gov is the U.S. government's official web portal to all federal, state and local government web resources and services.